GW2700 Weather Reports


time (UTC)temp
F
wind
direction
speed
knots
gust
knots
rain 1hr
in
rain 24hr
in
rain mn
in
humidity
%
barometer
mb
20260505170047 77 247 2.6 5.2 0.00 0.00 0.00 76 1003.0
20260505165543 77 229 4.3 5.2 0.00 0.00 0.00 76 1003.4
20260505165039 77 72 3.5 5.2 0.00 0.00 0.00 76 1003.3
20260505164535 77 244 5.2 7.0 0.00 0.00 0.00 76 1003.2
20260505164033 77 280 3.5 5.2 0.00 0.00 0.00 77 1003.3
20260505163531 76 297 2.6 3.5 0.00 0.00 0.00 77 1003.4
20260505163027 76 224 3.5 3.5 0.00 0.00 0.00 77 1003.5
20260505162521 76 257 4.3 6.1 0.00 0.00 0.00 78 1003.6
20260505162018 75 306 1.7 2.6 0.00 0.00 0.00 79 1003.4
20260505161514 75 276 2.6 3.5 0.00 0.00 0.00 80 1003.7
20260505161012 75 234 1.7 1.7 0.00 0.00 0.00 80 1003.3
20260505160510 74 237 2.6 2.6 0.00 0.00 0.00 80 1003.3
20260505152940 73 274 3.5 3.5 0.00 0.00 0.00 81 1003.1
20260505152437 73 271 3.5 6.1 0.00 0.00 0.00 81 1003.3
20260505151938 73 183 2.6 2.6 0.00 0.00 0.00 81 1003.3
20260505151433 73 281 4.3 5.2 0.00 0.00 0.00 81 1003.5
20260505150931 73 293 2.6 3.5 0.00 0.00 0.00 81 1003.6
20260505150427 73 264 2.6 3.5 0.00 0.00 0.00 81 1003.2
20260505140352 71 244 1.7 1.7 0.00 0.00 0.00 83 1003.5
20260505124806 70 250 1.7 2.6 0.00 0.00 0.00 86 1003.3
20260505124303 70 246 5.2 6.1 0.00 0.00 0.00 86 1003.0
20260505123758 70 238 3.5 5.2 0.00 0.00 0.00 85 1003.0
20260505123255 70 235 3.5 5.2 0.00 0.00 0.00 85 1002.9
20260505122751 70 282 3.5 3.5 0.00 0.00 0.00 85 1002.8
20260505122249 70 250 0.9 1.7 0.00 0.00 0.00 85 1002.8
20260505121745 70 155 1.7 2.6 0.00 0.00 0.00 85 1002.7
20260505121242 70 241 2.6 3.5 0.00 0.00 0.00 85 1002.5
20260505120738 70 244 2.6 2.6 0.00 0.00 0.00 85 1002.8
20260505120235 70 267 0.9 1.7 0.00 0.00 0.00 85 1002.6
20260505115733 70 244 1.7 2.6 0.00 0.00 0.00 85 1002.4
20260505115231 70 277 2.6 3.5 0.00 0.00 0.00 85 1002.5
20260505114728 70 254 0.9 0.9 0.00 0.00 0.00 85 1002.3
20260505114224 70 270 1.7 1.7 0.00 0.00 0.00 85 1002.3
20260505113721 70 211 1.7 1.7 0.00 0.00 0.00 85 1002.4
20260505113217 70 171 1.7 1.7 0.00 0.00 0.00 85 1002.4
20260505112714 70 243 1.7 2.6 0.00 0.00 0.00 85 1002.5
20260505112212 70 166 3.5 3.5 0.00 0.00 0.00 85 1002.4
20260505111711 70 280 3.5 3.5 0.00 0.00 0.00 85 1002.5
20260505111208 70 222 3.5 6.1 0.00 0.00 0.00 85 1002.4
20260505110704 70 250 3.5 3.5 0.00 0.00 0.00 85 1002.5
20260505110201 69 241 3.5 5.2 0.00 0.00 0.00 85 1002.4
20260505102137 69 259 4.3 5.2 0.00 0.00 0.00 84 1002.3
20260505101636 69 228 1.7 2.6 0.00 0.00 0.00 85 1002.2
20260505101132 69 252 2.6 2.6 0.00 0.00 0.00 84 1002.4
20260505100628 69 167 0.9 1.7 0.00 0.00 0.00 84 1002.4
20260505100125 69 285 5.2 7.0 0.00 0.00 0.00 84 1002.2
20260505095621 69 230 1.7 1.7 0.00 0.00 0.00 84 1002.1
20260505095118 69 221 1.7 1.7 0.00 0.00 0.00 84 1002.0
20260505094614 69 259 6.1 7.0 0.00 0.00 0.00 84 1002.1
20260505094110 69 257 1.7 1.7 0.00 0.00 0.00 84 1002.1
20260505093607 69 242 0.9 1.7 0.00 0.00 0.00 84 1002.2
20260505093104 69 244 3.5 3.5 0.00 0.00 0.00 84 1002.3
20260505092601 69 256 0.9 1.7 0.00 0.00 0.00 84 1002.3
20260505092100 69 131 1.7 2.6 0.00 0.00 0.00 84 1002.5
20260505091556 68 272 2.6 2.6 0.00 0.00 0.00 85 1002.4
20260505091055 68 266 3.5 5.2 0.00 0.00 0.00 84 1002.7
20260505090552 68 348 3.5 7.0 0.00 0.00 0.00 84 1002.3
20260505090050 68 208 4.3 6.1 0.00 0.00 0.00 84 1002.5
20260505085547 68 250 4.3 7.8 0.00 0.00 0.00 85 1002.3
20260505085045 68 247 4.3 6.1 0.00 0.00 0.00 85 1002.5
20260505084543 68 217 2.6 2.6 0.00 0.00 0.00 85 1002.7
20260505084041 68 279 1.7 2.6 0.00 0.00 0.00 85 1002.7
20260505083538 68 284 1.7 2.6 0.00 0.00 0.00 85 1002.9
20260505083034 68 275 2.6 3.5 0.00 0.00 0.00 85 1002.8
20260505082530 68 253 1.7 1.7 0.00 0.00 0.00 84 1002.8
20260505082027 68 137 1.7 1.7 0.00 0.00 0.00 85 1002.9
20260505081524 68 272 1.7 1.7 0.00 0.00 0.00 85 1002.8
20260505081021 68 292 2.6 3.5 0.00 0.00 0.00 85 1003.1
20260505080517 68 239 1.7 2.6 0.00 0.00 0.00 85 1002.9
20260505080014 68 206 1.7 1.7 0.00 0.00 0.00 85 1002.9
20260505075509 68 253 1.7 1.7 0.00 0.00 0.00 84 1003.1
20260505075007 68 250 1.7 2.6 0.00 0.00 0.00 84 1003.4
20260505074504 68 111 1.7 1.7 0.00 0.00 0.00 84 1003.3
20260505074001 68 264 2.6 3.5 0.00 0.00 0.00 84 1003.4
20260505073458 68 184 4.3 6.1 0.00 0.00 0.00 84 1003.3
20260505072956 68 268 1.7 1.7 0.00 0.00 0.00 84 1003.4
20260505072452 68 291 1.7 1.7 0.00 0.00 0.00 83 1003.5
20260505071948 68 162 1.7 3.5 0.00 0.00 0.00 83 1003.4
20260505071444 68 257 1.7 2.6 0.00 0.00 0.00 83 1003.6
20260505070942 68 310 2.6 3.5 0.00 0.00 0.00 83 1003.7
20260505070439 68 261 2.6 3.5 0.00 0.00 0.00 82 1003.7
20260505065934 69 272 1.7 1.7 0.00 0.00 0.00 82 1003.6
20260505065431 69 281 0.9 1.7 0.00 0.00 0.00 82 1003.8
20260505064928 68 165 0.9 0.9 0.00 0.00 0.00 82 1003.7
20260505064425 69 266 2.6 3.5 0.00 0.00 0.00 82 1003.5
20260505063923 69 235 2.6 3.5 0.00 0.00 0.00 81 1003.5
20260505063419 69 212 2.6 2.6 0.00 0.00 0.00 81 1003.7
20260505062916 69 184 0.9 0.9 0.00 0.00 0.00 81 1003.8
20260505062414 69 246 1.7 2.6 0.00 0.00 0.00 81 1004.0
20260505061910 69 206 1.7 2.6 0.00 0.00 0.00 80 1004.2
20260505061408 69 247 1.7 1.7 0.00 0.00 0.00 80 1004.2
20260505060905 69 249 2.6 3.5 0.00 0.00 0.00 80 1004.3
20260505060402 69 236 4.3 6.1 0.00 0.00 0.00 80 1004.1
20260505055858 69 252 1.7 1.7 0.00 0.00 0.00 79 1004.1
20260505055354 69 237 2.6 2.6 0.00 0.00 0.00 79 1004.1
20260505054852 69 223 1.7 1.7 0.00 0.00 0.00 79 1004.0
20260505054349 69 206 1.7 1.7 0.00 0.00 0.00 78 1004.2
20260505053847 70 189 1.7 1.7 0.00 0.00 0.00 78 1004.1
20260505053344 69 245 1.7 1.7 0.00 0.00 0.00 78 1004.2
20260505052840 70 309 3.5 5.2 0.00 0.00 0.00 78 1004.2
20260505052337 70 211 1.7 2.6 0.00 0.00 0.00 78 1004.3
20260505051835 70 142 0.9 1.7 0.00 0.00 0.00 77 1004.2
20260505051332 70 160 1.7 2.6 0.00 0.00 0.00 77 1004.3
20260505050830 70 244 2.6 3.5 0.00 0.00 0.00 77 1004.5
20260505050328 70 247 1.7 1.7 0.00 0.00 0.00 77 1004.3
20260505041758 71 244 1.7 1.7 0.00 0.00 0.00 74 1004.5
20260505041255 71 86 0.9 0.9 0.00 0.00 0.00 73 1004.5
20260505040752 71 235 0.9 1.7 0.00 0.00 0.00 73 1004.6
20260505040250 71 267 1.7 3.5 0.00 0.00 0.00 73 1004.7
20260505035746 71 241 0.9 1.7 0.00 0.00 0.00 72 1004.7
20260505035242 72 199 1.7 1.7 0.00 0.00 0.00 71 1004.6
20260505034739 72 191 2.6 3.5 0.00 0.00 0.00 71 1004.5
20260505034236 72 209 3.5 7.0 0.00 0.00 0.00 71 1004.5
20260505033733 72 165 1.7 2.6 0.00 0.00 0.00 70 1004.6
20260505033231 72 208 0.9 0.9 0.00 0.00 0.00 70 1004.5
20260505032728 72 304 0.9 1.7 0.00 0.00 0.00 69 1004.3
20260505032224 73 277 1.7 1.7 0.00 0.00 0.00 69 1004.4
20260505031722 73 291 2.6 5.2 0.00 0.00 0.00 68 1004.5
20260505031218 73 137 1.7 1.7 0.00 0.00 0.00 68 1004.3
20260505030715 73 215 1.7 2.6 0.00 0.00 0.00 67 1004.3
20260505030211 73 257 1.7 2.6 0.00 0.00 0.00 67 1004.3
20260505025707 73 114 0.9 0.9 0.00 0.00 0.00 66 1004.2
20260505025206 73 254 1.7 1.7 0.00 0.00 0.00 66 1004.2
20260505024703 73 146 0.9 1.7 0.00 0.00 0.00 66 1004.2
20260505024200 73 151 0.9 1.7 0.00 0.00 0.00 65 1004.3
20260505023657 73 189 3.5 5.2 0.00 0.00 0.00 65 1004.0
20260505023154 74 77 0.9 1.7 0.00 0.00 0.00 65 1004.2
20260505022652 74 175 1.7 2.6 0.00 0.00 0.00 64 1004.4
20260505022149 74 110 3.5 5.2 0.00 0.00 0.00 64 1004.2
20260505021645 74 294 1.7 1.7 0.00 0.00 0.00 64 1004.2
20260505021142 74 249 2.6 2.6 0.00 0.00 0.00 64 1004.2
20260505020638 74 188 2.6 5.2 0.00 0.00 0.00 63 1004.2
20260505020134 74 230 0.9 0.9 0.00 0.00 0.00 63 1004.3
20260505015631 74 266 1.7 1.7 0.00 0.00 0.00 63 1004.3
20260505015128 74 208 1.7 1.7 0.00 0.00 0.00 62 1004.2
20260505014625 74 244 0.9 0.9 0.00 0.00 0.00 62 1004.3
20260505014122 74 254 1.7 1.7 0.00 0.00 0.00 62 1004.1
20260505013619 75 281 2.6 2.6 0.00 0.00 0.00 61 1004.1
20260505013116 75 203 0.9 1.7 0.00 0.00 0.00 61 1004.1
20260505012615 75 295 1.7 1.7 0.00 0.00 0.00 60 1004.1
20260505012111 75 264 1.7 1.7 0.00 0.00 0.00 60 1004.1
20260505011607 75 280 1.7 2.6 0.00 0.00 0.00 60 1004.2
20260505011104 75 274 0.9 1.7 0.00 0.00 0.00 59 1004.0
20260505010559 76 239 0.9 0.9 0.00 0.00 0.00 58 1004.1
20260505010055 76 193 2.6 3.5 0.00 0.00 0.00 58 1004.4
20260505005552 76 249 1.7 1.7 0.00 0.00 0.00 58 1004.2
20260505005049 76 257 0.9 0.9 0.00 0.00 0.00 57 1003.9
20260505004546 76 232 1.7 2.6 0.00 0.00 0.00 57 1004.2
20260505004043 77 250 1.7 1.7 0.00 0.00 0.00 56 1004.1
20260505003540 77 255 1.7 2.6 0.00 0.00 0.00 56 1003.9
20260505003037 77 252 0.9 0.9 0.00 0.00 0.00 56 1004.2
20260505002537 77 135 0.9 0.9 0.00 0.00 0.00 55 1003.8
20260505002032 77 168 0.9 1.7 0.00 0.00 0.00 55 1004.1
20260505001528 77 289 1.7 2.6 0.00 0.00 0.00 54 1004.0
20260505001026 77 141 1.7 2.6 0.00 0.00 0.00 54 1004.1
20260505000523 77 256 0.9 1.7 0.00 0.00 0.00 54 1004.1
20260505000020 78 252 1.7 1.7 0.00 0.00 0.00 54 1004.2
20260504235517 78 219 2.6 3.5 0.00 0.00 0.00 53 1004.2
20260504235013 78 322 3.5 5.2 0.00 0.00 0.00 53 1004.4
20260504234511 78 228 0.9 1.7 0.00 0.00 0.00 54 1004.5
20260504234008 78 251 2.6 3.5 0.00 0.00 0.00 53 1004.6
20260504233503 79 145 2.6 2.6 0.00 0.00 0.00 53 1004.6
20260504233000 78 252 2.6 3.5 0.00 0.00 0.00 53 1004.9
20260504232457 78 261 0.9 1.7 0.00 0.00 0.00 53 1004.6
20260504231955 79 285 2.6 2.6 0.00 0.00 0.00 52 1004.7
20260504231451 79 281 2.6 3.5 0.00 0.00 0.00 52 1004.7
20260504230947 79 242 2.6 2.6 0.00 0.00 0.00 52 1004.7
20260504230444 79 244 3.5 5.2 0.00 0.00 0.00 52 1004.7
20260504225943 79 240 1.7 2.6 0.00 0.00 0.00 52 1004.9
20260504225439 79 154 1.7 2.6 0.00 0.00 0.00 52 1004.9
20260504224936 79 256 1.7 2.6 0.00 0.00 0.00 52 1004.9
20260504224433 79 117 1.7 3.5 0.00 0.00 0.00 52 1005.1
20260504223930 79 225 0.9 0.9 0.00 0.00 0.00 52 1005.2
20260504223426 79 184 1.7 1.7 0.00 0.00 0.00 51 1005.3
20260504222921 79 252 1.7 2.6 0.00 0.00 0.00 51 1005.2
20260504222419 79 241 2.6 3.5 0.00 0.00 0.00 51 1005.4
20260504221917 79 281 1.7 1.7 0.00 0.00 0.00 50 1005.3
20260504221414 79 264 3.5 3.5 0.00 0.00 0.00 51 1005.4
20260504220911 79 308 1.7 1.7 0.00 0.00 0.00 49 1005.3
20260504220407 79 230 2.6 3.5 0.00 0.00 0.00 48 1005.1
20260504215905 79 189 3.5 5.2 0.00 0.00 0.00 49 1005.4
20260504215401 79 222 0.9 1.7 0.00 0.00 0.00 49 1005.4
20260504214857 79 181 0.9 0.9 0.00 0.00 0.00 48 1005.7
20260504214354 79 283 1.7 1.7 0.00 0.00 0.00 48 1005.8
20260504213851 79 80 0.9 1.7 0.00 0.00 0.00 48 1005.8
20260504213347 79 261 1.7 1.7 0.00 0.00 0.00 48 1006.0
20260504212844 79 260 1.7 2.6 0.00 0.00 0.00 48 1006.1
20260504212340 79 177 2.6 3.5 0.00 0.00 0.00 48 1006.0
20260504211838 79 255 2.6 2.6 0.00 0.00 0.00 47 1006.4
20260504211334 79 256 1.7 3.5 0.00 0.00 0.00 46 1006.4
20260504210832 79 275 2.6 2.6 0.00 0.00 0.00 47 1006.6
20260504210328 79 193 2.6 3.5 0.00 0.00 0.00 47 1006.5
20260504205826 80 265 1.7 1.7 0.00 0.00 0.00 47 1006.8
20260504205323 79 282 2.6 2.6 0.00 0.00 0.00 48 1006.6
20260504204821 79 155 0.9 1.7 0.00 0.00 0.00 47 1007.0
20260504204320 79 236 0.9 0.9 0.00 0.00 0.00 46 1006.9
20260504203819 78 234 0.0 0.9 0.00 0.00 0.00 48 1007.2
20260504203315 79 250 0.9 1.7 0.00 0.00 0.00 47 1007.2
20260504202810 79 203 1.7 2.6 0.00 0.00 0.00 46 1007.3
20260504202308 79 252 1.7 1.7 0.00 0.00 0.00 47 1007.2
20260504201805 79 280 3.5 5.2 0.00 0.00 0.00 46 1007.3
20260504201302 78 272 4.3 6.1 0.00 0.00 0.00 46 1007.4
20260504200800 78 208 4.3 7.0 0.00 0.00 0.00 46 1007.5
20260504200255 78 18 1.7 2.6 0.00 0.00 0.00 46 1007.4
20260504195752 79 154 3.5 6.1 0.00 0.00 0.00 46 1007.8
20260504195248 78 316 2.6 3.5 0.00 0.00 0.00 46 1007.8
20260504194745 78 240 2.6 3.5 0.00 0.00 0.00 46 1008.1
20260504194241 78 231 2.6 2.6 0.00 0.00 0.00 46 1008.0
20260504193737 78 182 1.7 2.6 0.00 0.00 0.00 48 1008.1
20260504193235 78 106 1.7 1.7 0.00 0.00 0.00 49 1008.0
20260504192733 77 77 1.7 2.6 0.00 0.00 0.00 48 1008.0
20260504192231 77 169 1.7 1.7 0.00 0.00 0.00 49 1008.4
20260504191730 77 227 3.5 6.1 0.00 0.00 0.00 48 1008.2
20260504191226 78 218 1.7 2.6 0.00 0.00 0.00 48 1008.6
20260504190721 77 188 1.7 2.6 0.00 0.00 0.00 48 1008.3
20260504190218 77 152 1.7 2.6 0.00 0.00 0.00 47 1008.6
20260504185715 78 215 3.5 5.2 0.00 0.00 0.00 46 1008.5
20260504185212 77 271 2.6 3.5 0.00 0.00 0.00 47 1008.6
20260504184708 77 139 2.6 3.5 0.00 0.00 0.00 48 1008.7
20260504184203 77 249 1.7 1.7 0.00 0.00 0.00 47 1008.8
20260504183700 77 148 3.5 5.2 0.00 0.00 0.00 48 1009.0
20260504183157 77 281 0.9 1.7 0.00 0.00 0.00 48 1008.7
20260504182654 77 259 2.6 5.2 0.00 0.00 0.00 47 1009.1
20260504182152 77 288 2.6 2.6 0.00 0.00 0.00 47 1009.1
20260504181649 76 259 3.5 3.5 0.00 0.00 0.00 47 1009.3
20260504181147 76 255 2.6 3.5 0.00 0.00 0.00 47 1009.1
20260504180646 77 302 3.5 6.1 0.00 0.00 0.00 47 1009.5
20260504180144 77 159 1.7 2.6 0.00 0.00 0.00 47 1009.4
20260504175641 77 140 0.9 0.9 0.00 0.00 0.00 47 1009.5
20260504175137 76 319 1.7 2.6 0.00 0.00 0.00 47 1009.3
20260504174636 76 39 2.6 5.2 0.00 0.00 0.00 47 1009.6
20260504174132 76 273 2.6 2.6 0.00 0.00 0.00 48 1009.8
20260504173629 76 265 0.9 0.9 0.00 0.00 0.00 48 1010.0
20260504173126 76 274 1.7 2.6 0.00 0.00 0.00 47 1009.9
20260504172623 76 188 1.7 1.7 0.00 0.00 0.00 47 1009.7
20260504172120 75 222 1.7 1.7 0.00 0.00 0.00 48 1010.1
20260504171616 75 255 0.9 0.9 0.00 0.00 0.00 48 1010.0
20260504171114 75 307 3.5 5.2 0.00 0.00 0.00 47 1010.1
20260504170609 75 139 1.7 3.5 0.00 0.00 0.00 49 1010.1